Date String (YYYY-MM-DD hh:mm:ss) UTC,Instrument flags,absolute air pressure of the measurement (hPa),sample flow rate (lpm),inlet stack bypass flow (lpm),air temperature of the measurement (°C),ambient temperature measured by the external sensor (°C),aerosol sample conditioner tube jacket temperature (°C),OPC LED temperature (°C),internal box temperature (°C),relative humidity of the measurement (%),span deviation,mass concentration of particles derived from Lorenz-Mie calculation of OPC scattering (μg/m³),mass concentration of particles derived from Lorenz-Mie calculation of OPC scattering (μg/m³),mass concentration of particles derived from Lorenz-Mie calculation of OPC scattering (μg/m³)
DateTimeUTC,F1_M11,P_M11,Q1_M11,Q2_M11,T1_M11,T2_M11,T3_M11,T4_M11,T5_M11,U1_M11,ZSPAN_M11,X2_M11,X0_M11,X1_M11
2024-05-11 07:00:00,SystemResetWarning,0832.2,5.01,000.00,025.6,024.9,000.0,033.8,027.3,018.3,0000.0,0002.68,0003.97,0002.45
2024-05-11 07:01:00,SystemResetWarning,0832.2,5.00,000.00,025.5,024.9,000.0,033.8,027.3,018.3,0000.0,0002.71,0004.23,0002.45
2024-05-11 07:02:00,SystemResetWarning,0832.2,5.00,000.00,025.6,024.9,000.0,033.8,027.3,018.3,0000.0,0002.77,0004.38,0002.48
2024-05-11 07:03:00,SystemResetWarning,0832.2,5.01,000.00,025.5,024.9,000.0,033.8,027.3,018.4,0000.0,0002.81,0004.47,0002.50
2024-05-11 07:04:00,SystemResetWarning,0832.2,5.00,000.00,025.5,024.9,000.0,033.8,027.3,018.5,0000.0,0002.85,0004.51,0002.54
2024-05-11 07:05:00,SystemResetWarning,0832.2,4.99,000.00,025.5,024.9,000.0,033.8,027.3,018.4,0000.0,0002.89,0004.34,0002.58
2024-05-11 07:06:00,SystemResetWarning,0832.2,5.00,000.00,025.5,024.9,000.0,033.8,027.3,018.3,0000.0,0002.94,0004.04,0002.62
2024-05-11 07:07:00,SystemResetWarning,0832.2,5.00,000.00,025.5,024.9,000.0,033.8,027.3,018.3,0000.0,0002.96,0004.04,0002.63
2024-05-11 07:08:00,SystemResetWarning,0832.2,5.00,000.00,025.5,024.9,000.0,033.8,027.3,018.2,0000.0,0002.93,0003.98,0002.64
2024-05-11 07:09:00,SystemResetWarning,0832.2,5.00,000.00,025.5,024.8,000.0,033.8,027.3,018.2,0000.0,0002.96,0004.14,0002.64
2024-05-11 07:10:00,SystemResetWarning,0832.2,5.00,000.00,025.5,024.8,000.0,033.8,027.3,018.2,0000.0,0003.01,0004.36,0002.65
2024-05-11 07:11:00,SystemResetWarning,0832.2,5.01,000.00,025.5,024.8,000.0,033.8,027.2,018.2,0000.0,0003.01,0004.36,0002.65
2024-05-11 07:12:00,SystemResetWarning,0832.2,4.99,000.00,025.5,024.8,000.0,033.8,027.2,018.2,0000.0,0003.01,0004.27,0002.64
2024-05-11 07:13:00,SystemResetWarning,0832.1,5.00,000.00,025.5,024.8,000.0,033.8,027.2,018.1,0000.0,0002.97,0004.30,0002.64
2024-05-11 07:14:00,SystemResetWarning,0832.1,5.00,000.00,025.5,024.8,000.0,033.8,027.2,018.1,0000.0,0002.93,0004.19,0002.62
2024-05-11 07:15:00,SystemResetWarning,0832.1,5.00,000.00,025.5,024.8,000.0,033.8,027.2,018.1,0000.0,0002.87,0004.11,0002.58
2024-05-11 07:16:00,SystemResetWarning,0832.2,5.00,000.00,025.5,024.8,000.0,033.8,027.2,017.9,0000.0,0002.83,0004.15,0002.55
2024-05-11 07:17:00,SystemResetWarning,0832.1,5.00,000.00,025.5,024.8,000.0,033.8,027.2,017.9,0000.0,0002.77,0004.14,0002.51
2024-05-11 07:18:00,SystemResetWarning,0832.1,5.00,000.00,025.5,024.8,000.0,033.8,027.2,018.0,0000.0,0002.77,0004.14,0002.50
2024-05-11 07:19:00,SystemResetWarning,0832.1,5.00,000.00,025.5,024.8,000.0,033.8,027.2,018.1,0000.0,0002.79,0004.22,0002.51
2024-05-11 07:20:00,SystemResetWarning,0832.0,5.00,000.00,025.5,024.8,000.0,033.8,027.2,018.1,0000.0,0002.77,0004.07,0002.50
2024-05-11 07:21:00,SystemResetWarning,0832.0,5.00,000.00,025.5,024.8,000.0,033.8,027.2,018.1,0000.0,0002.74,0003.90,0002.49
2024-05-11 07:22:00,SystemResetWarning,0832.1,5.00,000.00,025.5,024.8,000.0,033.8,027.2,018.0,0000.0,0002.74,0003.90,0002.49
2024-05-11 07:23:00,SystemResetWarning,0832.0,5.00,000.00,025.5,024.8,000.0,033.8,027.2,018.0,0000.0,0002.71,0004.13,0002.49
2024-05-11 07:24:00,SystemResetWarning,0832.0,5.00,000.00,025.5,024.8,000.0,033.8,027.2,018.1,0000.0,0002.71,0004.20,0002.49
2024-05-11 07:25:00,SystemResetWarning,0832.0,5.00,000.00,025.5,024.8,000.0,033.8,027.2,018.1,0000.0,0002.75,0004.29,0002.50
2024-05-11 07:26:00,SystemResetWarning,0832.0,5.01,000.00,025.5,024.8,000.0,033.8,027.1,018.1,0000.0,0002.77,0004.70,0002.50
2024-05-11 07:27:00,SystemResetWarning,0832.0,5.01,000.00,025.4,024.8,000.0,033.7,027.2,018.1,0000.0,0002.74,0004.98,0002.48
2024-05-11 07:28:00,SystemResetWarning,0832.0,5.00,000.00,025.4,024.7,000.0,033.7,027.2,018.1,0000.0,0002.76,0004.95,0002.48
2024-05-11 07:29:00,SystemResetWarning,0832.0,5.00,000.00,025.4,024.7,000.0,033.7,027.2,018.1,0000.0,0002.75,0004.96,0002.46
2024-05-11 07:30:00,SystemResetWarning,0832.0,5.00,000.00,025.4,024.7,000.0,033.7,027.2,018.1,0000.0,0002.72,0004.89,0002.45
2024-05-11 07:31:00,SystemResetWarning,0832.0,5.00,000.00,025.4,024.7,000.0,033.7,027.1,018.1,0000.0,0002.71,0004.85,0002.45
2024-05-11 07:32:00,SystemResetWarning,0832.0,5.00,000.00,025.4,024.7,000.0,033.7,027.2,018.1,0000.0,0002.69,0004.84,0002.44
2024-05-11 07:33:00,SystemResetWarning,0832.0,4.99,000.00,025.4,024.7,000.0,033.7,027.1,018.1,0000.0,0002.67,0005.55,0002.43
2024-05-11 07:34:00,SystemResetWarning,0832.0,5.00,000.00,025.4,024.7,000.0,033.7,027.1,018.0,0000.0,0002.68,0005.25,0002.44
2024-05-11 07:35:00,SystemResetWarning,0832.0,4.99,000.00,025.4,024.7,000.0,033.7,027.1,018.1,0000.0,0002.65,0004.91,0002.41
2024-05-11 07:36:00,SystemResetWarning,0832.0,5.00,000.00,025.4,024.7,000.0,033.7,027.1,018.0,0000.0,0002.63,0004.86,0002.40
2024-05-11 07:37:00,SystemResetWarning,0832.0,4.99,000.00,025.4,024.7,000.0,033.7,027.1,017.9,0000.0,0002.60,0004.59,0002.39
2024-05-11 07:38:00,SystemResetWarning,0832.0,5.01,000.00,025.4,024.7,000.0,033.7,027.1,017.9,0000.0,0002.61,0004.07,0002.38
2024-05-11 07:39:00,SystemResetWarning,0832.0,5.00,000.00,025.4,024.7,000.0,033.7,027.1,017.9,0000.0,0002.57,0004.00,0002.37
2024-05-11 07:40:00,SystemResetWarning,0832.0,5.01,000.00,025.4,024.7,000.0,033.7,027.1,017.8,0000.0,0002.57,0004.02,0002.36
2024-05-11 07:41:00,SystemResetWarning,0831.9,5.00,000.00,025.4,024.7,000.0,033.7,027.1,017.9,0000.0,0002.58,0004.08,0002.34
2024-05-11 07:42:00,SystemResetWarning,0831.9,5.00,000.00,025.4,024.7,000.0,033.7,027.1,017.8,0000.0,0002.57,0004.07,0002.32
2024-05-11 07:43:00,SystemResetWarning,0831.9,5.00,000.00,025.4,024.7,000.0,033.7,027.1,017.8,0000.0,0002.56,0004.14,0002.30
2024-05-11 07:44:00,SystemResetWarning,0831.9,5.00,000.00,025.4,024.7,000.0,033.7,027.1,017.8,0000.0,0002.57,0004.11,0002.28
2024-05-11 07:45:00,SystemResetWarning,0831.9,5.00,000.00,025.4,024.7,000.0,033.7,027.1,017.8,0000.0,0002.58,0005.52,0002.25
2024-05-11 07:46:00,SystemResetWarning,0831.9,5.00,000.00,025.3,024.7,000.0,033.7,027.1,017.8,0000.0,0002.56,0005.58,0002.25
2024-05-11 07:47:00,SystemResetWarning,0831.9,5.00,000.00,025.3,024.7,000.0,033.7,027.1,017.8,0000.0,0002.56,0005.60,0002.26
2024-05-11 07:48:00,SystemResetWarning,0831.9,5.00,000.00,025.3,024.7,000.0,033.7,027.1,017.8,0000.0,0002.59,0005.69,0002.25
2024-05-11 07:49:00,SystemResetWarning,0831.9,4.99,000.00,025.3,024.7,000.0,033.6,027.1,017.8,0000.0,0002.58,0005.63,0002.26
2024-05-11 07:50:00,SystemResetWarning,0831.9,4.99,000.00,025.3,024.6,000.0,033.6,027.1,017.8,0000.0,0002.57,0005.58,0002.26
2024-05-11 07:51:00,SystemResetWarning,0831.9,5.00,000.00,025.3,024.6,000.0,033.6,027.1,017.8,0000.0,0002.57,0005.59,0002.26
2024-05-11 07:52:00,SystemResetWarning,0831.9,5.02,000.00,025.3,024.6,000.0,033.6,027.0,017.9,0000.0,0002.56,0005.92,0002.27
2024-05-11 07:53:00,SystemResetWarning,0831.9,5.00,000.00,025.3,024.6,000.0,033.6,027.0,017.9,0000.0,0002.54,0005.89,0002.27
2024-05-11 07:54:00,SystemResetWarning,0831.9,5.00,000.00,025.3,024.6,000.0,033.6,027.0,017.9,0000.0,0002.53,0005.87,0002.28
2024-05-11 07:55:00,SystemResetWarning,0831.9,5.00,000.00,025.3,024.6,000.0,033.6,027.1,017.9,0000.0,0002.52,0005.67,0002.27
2024-05-11 07:56:00,SystemResetWarning,0831.9,4.99,000.00,025.3,024.6,000.0,033.6,027.0,018.0,0000.0,0002.48,0004.15,0002.27
2024-05-11 07:57:00,SystemResetWarning,0831.9,4.99,000.00,025.3,024.6,000.0,033.6,027.0,018.1,0000.0,0002.48,0003.64,0002.26
2024-05-11 07:58:00,SystemResetWarning,0831.9,5.00,000.00,025.3,024.6,000.0,033.6,027.0,018.1,0000.0,0002.49,0003.68,0002.26
2024-05-11 07:59:00,SystemResetWarning,0831.9,5.01,000.00,025.3,024.6,000.0,033.6,027.0,018.0,0000.0,0002.51,0003.72,0002.28
